• In Italy
  • List of Countries
  • For 7 days
  • Water Temperature
  • Satellite Maps
  • Weather Map
  • Weather Widgets
  • user-avatar
    Login

    Hourly Weather Bhopal

    Today, 19 January, Friday

    Time Temperature Precipitation Wind Pressure Humidity
    00:00 +18°C° 0 mm 1 mps 717 mmHg 40%
    01:00 +18°C° 0 mm 1 mps 717 mmHg 40%
    02:00 +16°C° 0 mm 1 mps 717 mmHg 40%
    03:00 +16°C° 0 mm 1 mps 717 mmHg 40%
    04:00 +15°C° 0 mm 0 mps 717 mmHg 41%
    05:00 +15°C° 0 mm 1 mps 717 mmHg 42%
    06:00 +16°C° 0 mm 1 mps 717 mmHg 41%
    07:00 +18°C° 0 mm 1 mps 718 mmHg 39%
    08:00 +19°C° 0 mm 1 mps 718 mmHg 38%
    09:00 +22°C° 0 mm 1 mps 719 mmHg 35%
    10:00 +24°C° 0 mm 1 mps 719 mmHg 32%
    11:00 +26°C° 0 mm 2 mps 719 mmHg 29%
    12:00 +27°C° 0 mm 1 mps 719 mmHg 27%
    13:00 +28°C° 0 mm 1 mps 718 mmHg 26%
    14:00 +27°C° 0 mm 0 mps 718 mmHg 24%
    15:00 +26°C° 0 mm 0 mps 717 mmHg 27%
    16:00 +27°C° 0 mm 1 mps 717 mmHg 31%
    17:00 +25°C° 0 mm 1 mps 717 mmHg 34%
    18:00 +24°C° 0 mm 1 mps 717 mmHg 35%
    19:00 +22°C° 0 mm 1 mps 717 mmHg 36%
    20:00 +21°C° 0 mm 1 mps 717 mmHg 38%
    21:00 +20°C° 0 mm 1 mps 717 mmHg 39%
    22:00 +18°C° 0 mm 0 mps 717 mmHg 40%
    23:00 +17°C° 0 mm 0 mps 717 mmHg 41%

    Tomorrow, 20 January, Saturday

    Time Temperature Precipitation Wind Pressure Humidity
    00:00 +19°C° 0 mm 1 mps 717 mmHg 42%
    01:00 +18°C° 0 mm 1 mps 717 mmHg 44%
    02:00 +18°C° 0 mm 1 mps 717 mmHg 45%
    03:00 +18°C° 0 mm 1 mps 717 mmHg 46%
    04:00 +16°C° 0 mm 1 mps 716 mmHg 48%
    05:00 +16°C° 0 mm 1 mps 716 mmHg 49%
    06:00 +16°C° 0 mm 1 mps 717 mmHg 49%
    07:00 +18°C° 0 mm 1 mps 717 mmHg 48%
    08:00 +19°C° 0 mm 1 mps 718 mmHg 47%
    09:00 +20°C° 0 mm 2 mps 718 mmHg 43%
    10:00 +24°C° 0 mm 2 mps 718 mmHg 38%
    11:00 +26°C° 0 mm 2 mps 719 mmHg 33%
    12:00 +27°C° 0 mm 2 mps 718 mmHg 30%
    13:00 +28°C° 0 mm 1 mps 717 mmHg 28%
    14:00 +29°C° 0 mm 1 mps 716 mmHg 26%
    15:00 +27°C° 0 mm 1 mps 716 mmHg 29%
    16:00 +26°C° 0 mm 1 mps 716 mmHg 32%
    17:00 +25°C° 0 mm 1 mps 716 mmHg 35%
    18:00 +24°C° 0 mm 1 mps 716 mmHg 36%
    19:00 +22°C° 0 mm 1 mps 716 mmHg 37%
    20:00 +21°C° 0 mm 1 mps 717 mmHg 39%
    21:00 +20°C° 0 mm 1 mps 717 mmHg 39%
    22:00 +18°C° 0 mm 2 mps 716 mmHg 40%
    23:00 +18°C° 0 mm 2 mps 716 mmHg 41%

    Day after tomorrow, 21 January, Sunday

    Time Temperature Precipitation Wind Pressure Humidity
    00:00 +17°C° 0 mm 2 mps 716 mmHg 41%
    01:00 +17°C° 0 mm 2 mps 716 mmHg 41%
    02:00 +16°C° 0 mm 2 mps 716 mmHg 41%
    03:00 +16°C° 0 mm 2 mps 715 mmHg 42%
    04:00 +16°C° 0 mm 2 mps 715 mmHg 42%
    05:00 +15°C° 0 mm 1 mps 715 mmHg 43%
    06:00 +16°C° 0 mm 1 mps 716 mmHg 42%
    07:00 +18°C° 0 mm 1 mps 717 mmHg 42%
    08:00 +19°C° 0 mm 1 mps 718 mmHg 41%
    09:00 +21°C° 0 mm 1 mps 718 mmHg 37%
    10:00 +24°C° 0 mm 1 mps 718 mmHg 33%
    11:00 +26°C° 0 mm 1 mps 718 mmHg 28%
    12:00 +27°C° 0 mm 1 mps 717 mmHg 27%
    13:00 +28°C° 0 mm 1 mps 717 mmHg 25%
    14:00 +29°C° 0 mm 1 mps 716 mmHg 23%
    15:00 +28°C° 0 mm 1 mps 716 mmHg 26%
    16:00 +27°C° 0 mm 1 mps 715 mmHg 29%
    17:00 +26°C° 0 mm 1 mps 715 mmHg 31%
    18:00 +24°C° 0 mm 1 mps 716 mmHg 33%
    19:00 +22°C° 0 mm 1 mps 716 mmHg 34%
    20:00 +21°C° 0 mm 1 mps 716 mmHg 35%
    21:00 +20°C° 0 mm 1 mps 716 mmHg 35%
    22:00 +20°C° 0 mm 1 mps 716 mmHg 35%
    23:00 +18°C° 0 mm 2 mps 716 mmHg 35%

    22 January, Monday

    Time Temperature Precipitation Wind Pressure Humidity
    00:00 +18°C° 0 mm 2 mps 715 mmHg 35%
    01:00 +17°C° 0 mm 2 mps 715 mmHg 35%
    02:00 +17°C° 0 mm 2 mps 715 mmHg 35%
    03:00 +16°C° 0 mm 2 mps 714 mmHg 34%
    04:00 +16°C° 0 mm 2 mps 714 mmHg 34%
    05:00 +15°C° 0 mm 2 mps 714 mmHg 33%
    06:00 +16°C° 0 mm 2 mps 715 mmHg 34%
    07:00 +17°C° 0 mm 2 mps 716 mmHg 35%
    08:00 +18°C° 0 mm 2 mps 716 mmHg 35%
    09:00 +21°C° 0 mm 2 mps 716 mmHg 32%
    10:00 +24°C° 0 mm 2 mps 717 mmHg 29%
    11:00 +27°C° 0 mm 2 mps 717 mmHg 27%
    12:00 +28°C° 0 mm 2 mps 716 mmHg 25%
    13:00 +29°C° 0 mm 1 mps 715 mmHg 24%
    14:00 +30°C° 0 mm 1 mps 714 mmHg 23%
    15:00 +29°C° 0 mm 1 mps 714 mmHg 26%
    16:00 +27°C° 0 mm 1 mps 714 mmHg 29%
    17:00 +26°C° 0 mm 1 mps 713 mmHg 32%
    18:00 +25°C° 0 mm 1 mps 714 mmHg 33%
    19:00 +23°C° 0 mm 1 mps 714 mmHg 35%
    20:00 +21°C° 0 mm 2 mps 715 mmHg 36%
    21:00 +21°C° 0 mm 2 mps 714 mmHg 36%
    22:00 +20°C° 0 mm 2 mps 714 mmHg 37%
    23:00 +20°C° 0 mm 2 mps 714 mmHg 37%

    23 January, Tuesday

    Time Temperature Precipitation Wind Pressure Humidity
    00:00 +19°C° 0 mm 2 mps 714 mmHg 38%
    01:00 +19°C° 0 mm 2 mps 713 mmHg 39%
    02:00 +18°C° 0 mm 3 mps 713 mmHg 40%
    03:00 +18°C° 0 mm 2 mps 713 mmHg 41%
    04:00 +17°C° 0 mm 2 mps 713 mmHg 42%
    05:00 +17°C° 0 mm 2 mps 713 mmHg 43%
    06:00 +18°C° 0 mm 2 mps 713 mmHg 43%
    07:00 +18°C° 0 mm 2 mps 714 mmHg 42%
    08:00 +19°C° 0 mm 2 mps 715 mmHg 42%
    09:00 +22°C° 0 mm 3 mps 715 mmHg 37%
    10:00 +25°C° 0 mm 4 mps 715 mmHg 32%
    11:00 +28°C° 0 mm 6 mps 715 mmHg 27%
    12:00 +29°C° 0 mm 6 mps 714 mmHg 26%
    13:00 +29°C° 0 mm 6 mps 714 mmHg 25%
    14:00 +30°C° 0 mm 7 mps 713 mmHg 24%
    15:00 +29°C° 0 mm 6 mps 713 mmHg 26%
    16:00 +27°C° 0 mm 5 mps 713 mmHg 29%
    17:00 +26°C° 0 mm 4 mps 713 mmHg 32%
    18:00 +23°C° 0 mm 4 mps 713 mmHg 34%
    19:00 +22°C° 0 mm 4 mps 714 mmHg 35%
    20:00 +20°C° 0 mm 4 mps 715 mmHg 36%
    21:00 +19°C° 0 mm 4 mps 715 mmHg 36%
    22:00 +18°C° 0 mm 3 mps 715 mmHg 36%
    23:00 +17°C° 0 mm 3 mps 715 mmHg 36%

    24 January, Wednesday

    Time Temperature Precipitation Wind Pressure Humidity
    00:00 +17°C° 0 mm 3 mps 715 mmHg 37%
    01:00 +16°C° 0 mm 2 mps 714 mmHg 37%
    02:00 +15°C° 0 mm 2 mps 714 mmHg 38%
    03:00 +15°C° 0 mm 2 mps 714 mmHg 39%
    04:00 +14°C° 0 mm 2 mps 714 mmHg 41%
    05:00 +14°C° 0 mm 1 mps 714 mmHg 42%
    06:00 +15°C° 0 mm 1 mps 715 mmHg 42%
    07:00 +16°C° 0 mm 1 mps 716 mmHg 42%
    08:00 +16°C° 0 mm 1 mps 716 mmHg 42%
    09:00 +19°C° 0 mm 2 mps 717 mmHg 37%
    10:00 +21°C° 0 mm 2 mps 717 mmHg 32%
    11:00 +24°C° 0 mm 3 mps 717 mmHg 27%
    12:00 +25°C° 0 mm 3 mps 716 mmHg 25%
    13:00 +25°C° 0 mm 3 mps 716 mmHg 23%
    14:00 +26°C° 0 mm 3 mps 715 mmHg 21%
    15:00 +25°C° 0 mm 2 mps 715 mmHg 24%
    16:00 +24°C° 0 mm 2 mps 715 mmHg 26%
    17:00 +23°C° 0 mm 2 mps 715 mmHg 29%
    18:00 +21°C° 0 mm 2 mps 715 mmHg 29%
    19:00 +19°C° 0 mm 2 mps 715 mmHg 29%
    20:00 +17°C° 0 mm 2 mps 715 mmHg 30%
    21:00 +17°C° 0 mm 2 mps 715 mmHg 30%
    22:00 +16°C° 0 mm 2 mps 715 mmHg 31%
    23:00 +15°C° 0 mm 2 mps 715 mmHg 32%
    Show more